x

8461490 - New London, Ct (nlnc3) Weather Station

8:54 - Wed 28th Sep 2016 All times are EDT. -4 hours from GMT.

  • Wind
    7mph, 9mph gusts
  • Sea Temp 63°f
  • Luft Temp 68°f
  • Sea Pressure 1020.1mb
  • 8461490 - New London, Ct
  • 8461490 - New London, Ct

More Historic Weather Station data

Upgrade to MSW Pro to gain access to the past 30 days of data for over 8000 Wavebouys and Weather Stations around the globe.

Join Pro

Comparision Forecast

View Surf forecast
   
Mi 09/28 8:54 7 9 mph 1020.1mb 63f 68f
8:48 6 9 mph 1019.9mb 63f 68f
8:42 6 8 mph 1019.9mb 63f 68f
8:36 5 8 mph 1019.8mb 62f 68f
8:30 6 9 mph 1019.7mb 62f 68f
8:24 5 8 mph 1019.6mb 62f 68f
8:18 6 7 mph 1019.6mb 62f 68f
8:12 5 7 mph 1019.6mb 62f 68f
8:06 5 6 mph 1019.5mb 62f 68f
8:00 2 6 mph 1019.5mb 62f 68f
7:54 5 7 mph 1019.4mb 62f 68f
7:48 3 8 mph 1019.3mb 62f 68f
7:42 5 8 mph 1019.2mb 62f 68f
7:36 3 9 mph 1019.2mb 62f 68f
7:30 5 9 mph 1019.3mb 62f 68f
7:24 7 10 mph 1019.2mb 62f 68f
7:18 7 13 mph 1019.1mb 62f 68f
7:12 5 8 mph 1019mb 62f 68f
7:06 5 8 mph 1018.9mb 62f 68f
7:00 3 7 mph 1018.7mb 62f 68f
6:54 6 7 mph 1018.7mb 62f 68f
6:48 3 6 mph 1018.6mb 62f 68f
6:42 3 6 mph 1018.6mb 62f 68f
6:36 3 8 mph 1018.5mb 62f 69f
6:30 5 8 mph 1018.5mb 62f 69f
6:24 5 8 mph 1018.4mb 62f 69f
6:18 5 9 mph 1018.3mb 62f 69f
6:12 6 14 mph 1018.2mb 62f 69f
6:06 7 10 mph 1018.1mb 62f 69f
6:00 5 7 mph 1018mb 62f 69f
5:54 3 7 mph 1017.9mb 62f 69f
5:48 2 8 mph 1017.7mb 62f 69f
5:42 6 7 mph 1017.7mb 62f 69f
5:36 5 7 mph 1017.5mb 61f 68f
5:30 2 6 mph 1017.5mb 61f 69f
5:24 2 6 mph 1017.5mb 61f 69f
5:18 2 6 mph 1017.5mb 61f 69f
5:12 3 6 mph 1017.5mb 60f 69f
5:06 3 6 mph 1017.5mb 60f 69f
5:00 2 6 mph 1017.4mb 60f 69f
4:54 3 6 mph 1017.3mb 60f 69f
4:48 3 5 mph 1017.3mb 60f 69f
4:42  -  3 mph 1017.2mb 60f 69f
4:36 2 5 mph 1017.2mb 60f 69f
4:30 2 5 mph 1017.1mb 60f 69f
4:24 3 6 mph 1017mb 60f 69f
4:18 2 6 mph 1017.1mb 60f 69f
4:12 3 6 mph 1017.1mb 60f 69f
4:06 2 6 mph 1017.1mb 60f 69f
4:00 2 6 mph 1017.1mb 60f 69f
3:54 3 5 mph 1017mb 60f 69f
3:48 3 6 mph 1017mb 60f 69f
3:42 3 6 mph 1016.9mb 60f 69f
3:36 2 6 mph 1016.8mb 60f 69f
3:30 2 8 mph 1016.8mb 60f 69f
3:24 3 10 mph 1016.9mb 60f 69f
3:18 7 8 mph 1016.7mb 60f 69f
3:12 3 9 mph 1016.6mb 60f 69f
3:06 6 10 mph 1016.6mb 60f 69f
3:00 8 10 mph 1016.6mb 60f 69f
2:54 5 8 mph 1016.6mb 60f 69f
2:48 2 6 mph 1016.6mb 60f 69f
2:42 2 8 mph 1016.5mb 60f 69f
2:36 5 7 mph 1016.3mb 60f 69f
2:30 5 7 mph 1016.3mb 60f 69f
2:24 3 9 mph 1016.3mb 60f 69f
2:18 7 10 mph 1016.3mb 60f 69f
2:12 6 9 mph 1016.1mb 60f 69f
2:06 6 10 mph 1016.2mb 60f 69f
2:00 6 7 mph 1016.4mb 60f 69f
1:54 6 8 mph 1016.3mb 61f 69f
1:48 6 9 mph 1016.2mb 60f -
1:42 6 9 mph 1016.3mb 60f -
1:36 5 8 mph 1016.3mb 60f -
1:30 6 8 mph 1016.1mb 60f 69f
1:24 7 11 mph 1016.1mb 60f 69f
1:18 6 9 mph 1016.1mb 60f 69f
1:12 5 8 mph 1015.9mb 60f 69f
1:06 6 9 mph 1015.9mb 60f 69f
1:00 7 9 mph 1015.9mb 60f 69f
12:54 6 9 mph 1015.9mb 60f 69f
12:48 6 8 mph 1015.8mb 60f 69f
12:42 7 9 mph 1015.7mb 60f 69f
12:36 7 8 mph 1015.6mb 60f 69f
12:30 6 8 mph 1015.6mb 60f 69f
12:24 6 8 mph 1015.6mb 60f 69f
12:18 6 8 mph 1015.6mb 60f 69f
12:12 7 9 mph 1015.5mb 60f 69f
12:06 6 9 mph 1015.3mb 60f 69f
12:00 6 8 mph 1015.3mb 60f 69f
Di 09/27 11:54 5 7 mph 1015.3mb 60f 69f
11:48 5 7 mph 1015.3mb 60f 69f
11:42 6 7 mph 1015mb 61f 69f
11:36 6
mph
1015.1mb 61f 69f
11:30 3 5 mph 1015.2mb 61f 69f
11:24 3 7 mph 1015.2mb 61f 69f
11:18 6 7 mph 1015mb 61f 69f
11:12 6 7 mph 1014.9mb 62f 69f
11:06 6 7 mph 1014.9mb 62f 69f
11:00 6
mph
1015mb 62f 69f
10:54 6 7 mph 1015mb 62f 69f
10:48 5 6 mph 1015.1mb 62f 69f
10:42 5 6 mph 1015.1mb 62f 69f
10:36 5 6 mph 1015mb 62f 69f
10:30 5 6 mph 1014.9mb 62f 69f
10:24 3 6 mph 1014.8mb 62f 69f
10:18 3 5 mph 1014.8mb 62f 69f
10:12 3 6 mph 1014.8mb 63f 69f
10:06 3 6 mph 1014.7mb 63f 69f
10:00 5 6 mph 1014.6mb 63f 69f
9:54 5 6 mph 1014.5mb 63f 69f
9:48 3 5 mph 1014.5mb 63f 69f
9:42 3
mph
1014.5mb 63f 69f
9:36 1 3 mph 1014.5mb 63f 69f
9:30 2 5 mph 1014.4mb 64f 69f
9:24 2 3 mph 1014.4mb 64f 69f
9:18 2 3 mph - 64f 69f
9:12 3 5 mph - 64f 69f
9:06 3 6 mph - 64f 69f
9:00 5
mph
1014mb 64f 69f
8:54 3 5 mph 1014mb 64f 69f
8:48 3 5 mph 1014mb 65f 69f
8:42 3 5 mph 1014mb 65f 69f
8:36 3 5 mph 1014mb 65f 69f
8:30 1 2 mph 1014mb 65f 69f
8:24 1
mph
1013.9mb 65f 69f
8:18  -  2 mph 1013.8mb 65f 69f
8:12 1 2 mph 1013.7mb 66f 69f
8:06  -  2 mph 1013.6mb 66f 69f
8:00 1 2 mph 1013.6mb 66f 69f
7:54 1 2 mph 1013.6mb 66f 69f
7:48 1 3 mph 1013.6mb 66f -
7:42 2 3 mph 1013.5mb 66f -
7:36 3
mph
1013.4mb 66f -
7:30 2 5 mph 1013.3mb 67f 69f
7:24 3 6 mph 1013.3mb 67f 69f
7:18 6
mph
1013.3mb 68f 69f
7:12 6 7 mph 1013.1mb 67f 69f
7:06 3 6 mph 1013mb 67f 69f
7:00 5 8 mph 1012.9mb 67f 69f
6:54 6 8 mph 1013mb 68f 69f
6:48 7 9 mph 1013mb 68f 69f
6:42 7 9 mph 1012.9mb 68f 69f
6:36 8 9 mph 1012.9mb 68f 69f
6:30 8 9 mph 1012.9mb 68f 69f
6:24 7 8 mph 1012.9mb 68f 69f
6:18 7 9 mph 1012.7mb 68f 69f
6:12 8 9 mph 1012.7mb 68f 69f
6:06 9 10 mph 1012.7mb 68f 69f
6:00 8 9 mph 1012.6mb 68f 69f
5:54 7 9 mph 1012.5mb 68f 69f
5:48 8 9 mph - 68f 69f
5:42 7 8 mph - 69f 69f
5:36 5 8 mph - 69f 69f
5:30 6 7 mph 1012mb 69f 69f
5:24 6 8 mph 1012mb 69f 69f
5:18 6 8 mph 1012mb 69f 69f
5:12 7 8 mph 1011.9mb 69f 69f
5:06 7 9 mph 1012mb 69f 69f
5:00 8 10 mph 1012.1mb 69f 69f
4:54 7 11 mph 1012.3mb 69f 69f
4:48 10 13 mph 1012.2mb 69f 69f
4:42 10 11 mph 1012.1mb 69f 69f
4:36 10 11 mph 1012.1mb 69f 69f
4:30 8 9 mph 1012mb 69f 69f
4:24 8 9 mph 1011.9mb 69f 69f
4:18 6
mph
1011.8mb 69f 69f
4:12 6 8 mph 1011.7mb 69f 69f
4:06 7 10 mph 1011.7mb 69f 69f
4:00 9 10 mph 1011.8mb 69f 69f
3:54 8 10 mph 1011.8mb 69f 69f
3:48 7 8 mph 1011.8mb 69f 69f
3:42 6 7 mph 1011.7mb 69f 69f
3:36 7 8 mph 1011.8mb 69f 69f
3:30 7 8 mph 1011.8mb 69f 69f
3:24 8
mph
1011.9mb 69f 69f
3:18 8
mph
1011.9mb 69f 69f
3:12 8 9 mph 1012mb 69f 69f
3:06 7 8 mph 1012.1mb 69f 69f
3:00 7 8 mph 1012.1mb 69f 69f
2:54 8
mph
1012.2mb 69f 69f
2:48 7 8 mph 1012.1mb 69f 69f
2:42 7 8 mph 1012.1mb 69f 69f
2:36 7
mph
1012.2mb 69f 69f
2:30 6
mph
1012.1mb 69f 69f
2:24 5 6 mph 1012.1mb 69f 69f
2:18 3 5 mph 1012.1mb 70f 69f
2:12  -  1 mph 1012mb 70f 69f
2:06  -  1 mph 1012mb 71f 69f
2:00 1 2 mph 1011.9mb 70f 69f
1:54  -  mph 1012mb - -
1:48  -  2 mph 1012mb 70f 69f
1:42 2 3 mph 1011.9mb 69f 69f
1:36 1 2 mph 1012mb 69f 69f
1:30 2
mph
1012.1mb 69f 69f
1:24 2
mph
1012.2mb 69f 69f
1:18 1 2 mph 1012.3mb 69f 69f
1:12 1 2 mph 1012.4mb 69f 69f
1:06 2
mph
1012.5mb 69f 69f
1:00 1 2 mph 1012.6mb 69f 69f
12:54 2 3 mph 1012.6mb 69f 69f
12:48 2
mph
1012.5mb 69f 69f
12:42 2 3 mph 1012.5mb 69f 69f
12:36 1 5 mph 1012.5mb 69f 69f
12:30 2 5 mph 1012.6mb 69f 69f
12:24 2 3 mph 1012.6mb 69f 69f
12:18 2 5 mph 1012.7mb 69f 69f
12:12 3 5 mph 1012.7mb 68f 69f
12:06 2 6 mph 1012.7mb 68f 69f
12:00 3 6 mph 1012.8mb 68f 69f
11:54 3 6 mph 1012.8mb 68f 69f
11:48 3 7 mph 1012.8mb 68f 69f
11:42 3 6 mph 1012.8mb 69f 69f
11:36 3 6 mph 1012.8mb 68f 69f
11:30 3 6 mph 1012.7mb 68f 69f
11:24 2 5 mph 1012.7mb 68f 69f
11:18 3 7 mph 1012.7mb 68f 69f
11:12 3 5 mph 1012.8mb 68f 69f
11:06 3 6 mph 1012.8mb 68f 69f
11:00 3 6 mph 1012.8mb 68f 69f
10:54 6 7 mph 1012.9mb 68f 69f
10:48 5 7 mph 1012.8mb 67f 69f
10:42 3 7 mph 1012.8mb 67f 69f
10:36 2 7 mph 1012.7mb 67f 69f
10:30 5 7 mph 1012.7mb 67f 69f
10:24 2 6 mph 1012.7mb 67f 69f
10:18 2 3 mph 1012.6mb 67f 69f
10:12 2 3 mph 1012.7mb 66f 69f
10:06 1 3 mph 1012.7mb 67f 69f
10:00 1 3 mph 1012.6mb 66f 69f
9:54  -  1 mph 1012.5mb 66f 69f
9:48 1 2 mph 1012.5mb 66f 69f
9:42  -  3 mph 1012.5mb 66f 69f
9:36 2 3 mph 1012.7mb 66f 69f
9:30 2 5 mph 1012.5mb 66f 69f
9:24 2 3 mph 1012.4mb 66f 69f
9:18 2 3 mph 1012.4mb 66f 69f
9:12 1 6 mph 1012.4mb 66f 69f
9:06 2 5 mph 1012.4mb 66f 69f
9:00 2 3 mph 1012.3mb 66f 69f
8:54 2 6 mph 1012.2mb 66f 69f
8:48 2 3 mph 1012.3mb 66f 69f
8:42 3 5 mph 1012.2mb 66f 69f
8:36 1 3 mph 1012.1mb 67f 69f
8:30 1 5 mph 1012.2mb 67f 69f
8:24  -  2 mph 1012.1mb 67f 69f
8:18  -  2 mph 1012.1mb 67f 69f
8:12 1 3 mph 1012mb 67f 69f
8:06 1 3 mph 1012mb 67f 69f
8:00 3 6 mph 1011.9mb 67f 69f
7:54 2 5 mph 1012mb 67f 69f
7:48 3 6 mph 1011.9mb 67f 69f
7:42 3 6 mph 1012mb 67f 69f
7:36 3 7 mph 1011.9mb 67f 69f
7:30 5 8 mph 1011.9mb 67f 69f
7:24 5 8 mph 1011.9mb 67f 69f
7:18 5 10 mph 1011.7mb 67f 69f
7:12 6 8 mph 1011.7mb 67f 69f
7:06 7 13 mph 1011.6mb 68f 68f
7:00 6 11 mph 1011.6mb 68f 68f
6:54 5 10 mph 1011.5mb 68f 68f
6:48 7 15 mph 1011.5mb 68f 68f
6:42 7 17 mph 1011.4mb 68f 68f
6:36 11 20 mph 1011.2mb 68f 68f
6:30 8 15 mph 1011.1mb 67f 68f
6:24 9 13 mph 1011.2mb 67f 68f
6:18 9 14 mph 1011.3mb 67f 68f
6:12 9 13 mph 1011.3mb 67f 68f
6:06 10 14 mph 1011.4mb 67f 69f
6:00 8 11 mph 1011.5mb 67f 69f
5:54 9 13 mph 1011.6mb 67f 68f
5:48 9 14 mph 1011.7mb 67f 68f
5:42 11 17 mph 1011.8mb 67f 68f
5:36 13 17 mph 1011.9mb 66f 68f
5:30 11 16 mph 1012mb 66f 68f
5:24 9 13 mph 1012.1mb 67f 68f
5:18 10 16 mph 1012.1mb 67f 68f
5:12 8 10 mph 1012.2mb 67f 68f
5:06 8 11 mph 1012.3mb 67f 68f
5:00 8 14 mph 1012.3mb 67f 68f
4:54 11 17 mph 1012.4mb 67f 69f
4:48 6 8 mph 1012.4mb 67f 69f
4:42 7 9 mph 1012.4mb 68f 69f
4:36 6 9 mph 1012.5mb 68f 69f
4:30 5 6 mph 1012.4mb 68f 69f
4:24 3 7 mph 1012.4mb 68f 69f
4:18 6 9 mph 1012.5mb 68f 69f
4:12 7 11 mph 1012.6mb 68f 68f
4:06 7 11 mph 1012.8mb 68f 68f
4:00 8 14 mph 1012.8mb 68f 68f
3:54 8 13 mph 1012.8mb 69f 69f
3:48 8 13 mph 1012.8mb 69f 68f
3:42 9 14 mph 1012.9mb 69f 68f
3:36 9 14 mph 1013mb 69f 68f
3:30 8 14 mph 1013mb 69f 69f
3:24 13 15 mph 1013.2mb 69f 69f
3:18 10 16 mph 1013.2mb 69f 68f
3:12 10 14 mph 1013.3mb 69f 68f
3:06 10 14 mph 1013.4mb 69f 68f
3:00 9 14 mph 1013.6mb 68f 68f
2:54 11 15 mph 1013.7mb 68f 68f
2:48 9 15 mph 1013.7mb 68f -
2:42 11 14 mph 1013.8mb 68f -
2:36 10 15 mph 1013.9mb 68f -
2:30 10 14 mph 1014mb 68f 69f
2:24 13 15 mph 1014.2mb 68f 69f
2:18 13 16 mph 1014.2mb 68f 69f
2:12 11 15 mph 1014.3mb 68f 69f
2:06 11 15 mph 1014.4mb 68f 68f
2:00 13 16 mph 1014.5mb 68f 68f
1:54 8 15 mph 1014.5mb 67f 68f
1:48 11 17 mph 1014.5mb 67f -
1:42 8 14 mph 1014.6mb 67f -
1:36 11 15 mph 1014.6mb 67f -
1:30 11 17 mph 1014.6mb 67f 68f
1:24 10 17 mph 1014.6mb 67f 68f
1:18 10 16 mph 1014.8mb 67f 68f
1:12 15 21 mph 1014.8mb 67f 68f
1:06 13 18 mph 1014.7mb 67f 68f
1:00 14 17 mph 1014.8mb 67f 68f
12:54 13 17 mph 1014.9mb 67f 68f
12:48 10 14 mph 1015.1mb 67f 68f
12:42 9 13 mph 1015.2mb 67f 68f
12:36 10 14 mph 1015.4mb 67f 68f
12:30 10 15 mph 1015.6mb 67f 68f
12:24 10 13 mph 1015.7mb 67f 68f
12:18 8 11 mph 1015.8mb 67f 68f
12:12 10 14 mph 1015.9mb 67f 68f
12:06 9 15 mph 1016.1mb 67f 68f
12:00 10 16 mph 1016.1mb 67f 68f
Mo 09/26 11:54 10 16 mph 1016.2mb 67f 68f
11:48 11 15 mph 1016.4mb 67f 68f
11:42 10 14 mph 1016.4mb 66f 68f
11:36 8 14 mph 1016.7mb 66f 68f
11:30 9 13 mph 1016.8mb 66f 68f
11:24 10 16 mph 1016.9mb 66f 68f
11:18 13 17 mph 1016.9mb 66f 68f
11:12 10 16 mph 1017mb 66f 68f
11:06 13 15 mph 1017mb 66f 69f
11:00 11 18 mph 1017.1mb 66f 69f
10:54 10 14 mph 1017.1mb 66f 69f
10:48 13 15 mph 1017.1mb 66f 69f
10:42 13 18 mph 1017.2mb 66f 69f
10:36 10 14 mph 1017.4mb 66f 69f
10:30 9 15 mph 1017.5mb 66f 68f
10:24 11 18 mph 1017.6mb 66f 68f
10:18 11 18 mph 1017.6mb 66f 68f
10:12 11 14 mph 1017.7mb 66f 69f
10:06 9 14 mph 1017.6mb 65f 69f
10:00 7 13 mph 1017.6mb 65f 69f
9:54 10 16 mph 1017.8mb 65f 69f
9:48 10 16 mph 1017.8mb 65f 69f
9:42 9 14 mph 1017.9mb 65f 69f
9:36 10 14 mph 1017.9mb 65f 69f
9:30 10 15 mph 1018mb 65f 69f
9:24 10 16 mph 1018mb 65f 69f
9:18  -  mph 1018mb 65f 69f
9:12  -  mph 1018mb 65f 69f
9:06  -  mph 1018.1mb 65f 69f
9:00 10 15 mph 1018mb 65f 69f
8:54 13 15 mph 1018mb 65f 69f
8:48 10 15 mph 1018.1mb 65f 69f
8:42 10 14 mph 1018.2mb 65f 69f
8:36 13 15 mph 1018.2mb 65f 69f
8:30 10 17 mph 1018.3mb 65f 69f
8:24 10 15 mph 1018.2mb 65f 69f
8:18  -  mph 1018.3mb 65f 69f
8:12  -  mph 1018.2mb 65f 69f
8:06  -  mph 1018.2mb 65f 69f
8:00 14 17 mph 1018.2mb 65f 69f
7:54 11 17 mph 1018.2mb 65f 69f
7:48 13 15 mph 1018.3mb 65f 69f
7:42 13 17 mph 1018.2mb 65f 69f
7:36 13 17 mph 1018.2mb 65f 69f
7:30 14 16 mph 1018.2mb 65f 69f
7:24 13 18 mph 1018.3mb 65f 69f
7:18 13 17 mph 1018.2mb 65f 69f
7:12 14 17 mph 1018.3mb 65f 69f
7:06 13 17 mph 1018.3mb 65f 69f